Presure
193 177 168 168 192 186 189 190 163 181 177 172 168 134 188 170 155 208 163 182 175 183 167 197 189 213 196 192 189 183 182 221 198 209 204 186 172 179
187 192 180 178 175 186 173 180 202 174 171 188 182 180 176 168 180 132 188 179 199 186 165 178 178 182 212 187 191 182 184 208 219 198 214 201 197 190
192 177 172 170 194 182 181 168 156 169 176 171 189 178 178 187 181 181 184 182 184 163 159 166 178 173 190 206 192 187 182 183 170 196 190 193 185 192
194 191 168 186 181 175 167 191 192 183 181 183 174 192 184 189 198 179 160 207 187 181 208 186 171 182 162 190 205 194 188 184 181 178 174 181 191 172
196 196 188 184 194 181 190 167 163 162 167 189 166 187 185 178 186 199 180 175 188 204 186 181 184 198 173 179 187 204 196 186 181 175 176 194 189 175
191 249 227 227 205 200 202 187 198 193 186 174 187 187 186 180 194 185 164 197 173 174 190 191 179 177 168 181 181 181 207 192 185 183 183 173 168 191
210 263 213 256 188 218 214 171 170 175 197 186 175 185 185 173 176 189 192 185 204 174 180 182 195 192 165 172 174 197 190 202 163 188 180 188 169 173
322 290 287 282 264 202 237 241 218 230 255 186 170 191 188 185 190 196 180 212 166 194 190 194 202 196 213 211 208 191 186 197 215 195 192 195 191 192
391 463 462 307 282 286 271 264 262 259 255 251 230 190 200 187 187 188 197 198 202 180 175 211 204 181 183 190 203 193 184 175 214 208 195 190 186 192
351 390 450 439 385 339 313 274 274 288 288 276 236 222 207 203 192 195 186 180 185 173 183 159 195 187 178 169 197 179 189 191 192 211 210 208 195 196
303 303 315 382 379 334 328 328 332 284 277 268 264 243 202 209 194 209 188 225 207 194 177 169 183 176 186 200 195 207 191 152 194 226 213 214 202 197
272 273 278 291 326 311 311 334 308 323 347 317 307 284 206 209 189 201 178 220 197 180 193 207 205 171 203 189 188 171 212 215 200 217 234 215 212 194
245 272 267 265 267 284 281 298 334 352 354 315 280 281 256 212 203 199 200 180 189 203 171 189 193 195 201 196 209 193 194 180 192 226 233 192 219 206
238 261 252 251 253 258 278 266 285 312 316 293 287 277 246 263 204 203 205 202 184 179 193 188 185 187 189 201 188 195 220 200 187 240 223 222 216 208
225 242 241 244 255 238 257 252 262 270 290 282 275 260 258 256 265 235 203 223 209 191 195 196 195 190 209 182 214 206 221 215 195 183 213 241 227 207
227 231 221 237 240 245 241 255 247 257 268 275 265 259 265 242 250 234 234 213 203 198 193 195 190 190 210 214 215 172 194 198 211 188 221 202 213 228
238 228 234 228 241 245 250 241 245 255 252 264 259 249 253 240 249 227 225 237 229 203 185 188 199 205 206 202 200 214 240 209 206 209 237 214 228 227
234 236 243 243 233 247 239 249 244 246 247 260 256 260 212 238 224 238 217 217 217 213 204 202 212 222 214 214 196 206 185 208 208 213 184 241 220 193
242 251 239 236 249 243 246 248 248 245 243 253 264 245 247 242 224 232 235 231 218 199 229 232 214 188 190 205 199 213 215 203 209 222 225 197 184 190
256 251 250 253 257 249 248 248 254 250 241 252 258 246 244 244 240 226 243 229 234 225 236 227 212 212 206 213 221 227 227 218 240 219 209 217 222 205
338 338 321 262 250 245 264 249 260 250 252 243 247 249 240 246 247 247 243 238 238 226 227 230 236 221 217 223 219 211 209 206 221 231 232 239 245 232
334 337 343 345 346 320 259 246 267 266 272 248 257 246 240 251 232 244 250 239 237 241 248 249 230 224 246 218 233 227 226 230 231 240 243 245 244 241
328 336 342 340 348 350 344 358 373 271 268 277 262 276 250 260 254 250 236 236 239 247 253 247 252 253 250 248 246 243 241 242 249 259 258 254 252 250
Wind_Speed
93 95 73 73 61 74 64 81 67 78 77 75 70 36 69 68 41 57 52 54 50 50 44 42 38 35 36 36 36 32 30 31 29 34 33 35 39 42
88 96 96 90 84 86 82 79 78 66 84 71 84 73 76 66 71 44 63 59 59 56 46 49 42 39 39 36 40 36 32 29 35 34 37 38 38 43
108 88 89 85 110 102 93 69 57 79 75 91 74 99 90 62 84 76 71 60 70 55 46 37 51 44 38 40 43 42 39 35 33 39 40 40 44 41
107 106 84 108 102 91 79 106 97 96 99 108 96 94 89 96 83 88 39 75 79 66 69 70 55 57 42 41 42 50 45 42 41 38 39 42 45 41
101 114 109 106 115 108 112 84 74 72 83 93 86 101 97 102 102 92 81 62 83 80 62 61 65 67 49 48 45 49 53 49 47 45 46 48 50 49
107 112 112 111 118 114 119 104 113 111 111 99 105 110 109 102 97 77 53 104 46 48 66 72 59 57 52 58 52 49 55 55 55 52 48 47 46 55
97 108 108 112 106 119 124 89 95 99 111 114 98 108 112 82 92 108 106 102 103 70 67 53 67 73 52 58 51 61 54 58 46 59 54 55 50 53
79 91 101 112 118 111 113 114 110 111 112 119 93 126 123 117 114 112 90 96 61 100 82 91 72 65 75 74 73 71 55 60 62 63 61 59 59 58
26 30 49 95 103 107 113 113 116 116 114 113 113 122 126 109 117 107 113 119 110 62 57 97 81 61 63 68 77 66 59 56 68 67 64 62 62 62
14 15 26 39 66 87 99 105 106 109 109 107 113 123 127 125 109 109 104 88 88 61 76 46 76 83 56 44 80 60 67 65 66 74 70 70 68 67
14 12 16 23 37 64 73 80 88 104 101 102 102 115 123 129 123 115 101 105 120 111 70 49 82 69 81 93 86 89 56 54 69 74 74 71 72 69
27 23 24 19 20 34 40 43 77 75 81 97 96 101 123 129 103 123 79 110 117 93 110 117 113 44 113 76 71 67 91 81 60 72 73 71 73 70
33 28 26 25 29 28 33 29 34 50 61 82 80 86 110 131 121 124 126 72 90 95 54 88 91 103 112 100 93 83 84 61 72 78 73 67 71 73
41 34 33 39 37 37 33 38 30 34 51 68 79 81 94 90 122 131 133 134 83 70 114 98 89 90 74 108 87 77 81 92 67 80 79 77 76 73
47 46 43 44 40 49 35 46 43 41 46 69 79 87 90 96 98 110 129 131 139 102 112 117 103 86 120 60 121 107 114 107 82 68 89 80 80 78
55 54 53 55 55 54 56 48 55 56 54 64 81 88 91 101 104 113 119 133 126 119 107 113 85 73 112 120 123 60 71 85 103 70 95 82 81 85
62 63 63 62 64 64 63 64 62 64 66 66 85 95 97 103 106 115 117 112 121 114 82 89 100 121 117 97 95 120 109 110 96 96 101 85 91 87
70 70 75 74 71 74 73 74 76 75 77 74 82 88 78 107 111 121 120 124 128 125 121 114 124 121 121 118 80 99 73 98 99 100 70 105 94 78
77 78 76 75 82 81 83 85 86 87 89 84 84 99 104 114 115 113 128 127 117 86 131 132 114 74 77 99 89 118 121 100 106 110 105 82 82 79
86 84 85 87 86 84 86 88 94 97 96 96 96 106 112 118 122 116 124 123 132 125 136 127 105 105 92 113 125 126 123 114 119 104 92 93 96 88
59 62 70 94 86 82 93 87 97 98 105 105 104 113 111 119 124 129 130 131 130 126 128 134 135 131 125 131 121 104 101 99 117 122 121 125 123 111
61 63 66 69 70 82 92 87 100 102 109 104 116 118 115 124 105 125 133 133 132 136 140 141 134 125 140 117 134 129 125 131 129 132 131 128 125 120
63 65 64 64 64 64 66 67 67 103 106 113 109 122 114 128 135 137 127 125 126 134 141 137 144 142 140 139 138 136 134 141 140 139 137 135 133 129
Wind_Direction
226 249 262 259 223 247 248 243 270 249 256 269 280 247 267 286 290 272 285 276 277 276 274 285 291 285 279 283 285 278 288 248 256 250 253 238 250 242
235 230 246 247 258 245 264 254 245 258 266 259 266 270 276 281 280 262 278 271 277 280 274 282 280 285 278 282 283 279 278 263 245 256 251 255 253 248
233 251 256 262 237 249 257 264 267 267 259 270 257 270 274 269 275 277 278 272 271 268 273 267 278 276 285 274 280 279 280 277 268 268 271 260 266 261
236 237 262 243 252 259 267 253 253 254 257 260 268 256 263 263 258 277 271 261 275 267 271 268 274 276 273 281 282 275 275 275 275 274 272 282 274 279
241 235 241 249 241 254 248 268 273 272 269 254 274 260 261 272 270 259 278 278 275 268 268 266 273 273 276 279 284 276 270 272 271 270 275 275 277 280
237 230 235 236 237 241 243 251 248 249 252 262 254 258 260 268 258 267 267 268 269 264 264 268 265 268 273 275 276 276 272 266 267 268 265 270 274 275
240 236 242 236 244 237 238 260 262 260 248 248 259 255 259 270 270 263 261 272 265 265 272 273 270 270 264 271 266 274 272 271 270 263 265 262 270 271
244 241 240 238 237 243 239 240 239 242 243 248 261 250 253 258 257 254 268 257 252 266 271 269 266 269 270 269 270 274 274 276 264 261 262 261 263 262
272 260 245 241 243 244 244 245 245 245 244 242 238 246 242 253 256 260 254 260 261 260 263 267 271 273 273 274 276 273 268 270 266 264 264 263 265 264
307 278 247 242 241 242 243 243 243 244 243 243 241 233 239 242 249 247 259 251 266 255 260 241 268 273 269 258 274 271 273 274 276 270 266 261 261 263
300 269 285 263 248 243 243 247 248 243 242 242 240 237 244 237 247 241 254 247 252 262 261 259 274 263 277 274 276 275 273 269 277 263 267 262 261 262
273 269 257 281 263 233 239 254 248 248 243 242 243 242 243 240 253 244 256 247 257 255 264 261 263 259 269 279 274 265 274 275 273 267 259 260 260 265
268 273 269 266 254 262 255 266 263 244 239 235 237 235 235 239 245 247 249 256 259 248 253 264 266 264 271 273 271 280 283 283 285 267 261 265 260 262
266 263 260 257 254 257 269 255 264 252 238 231 230 231 237 229 244 244 246 252 259 261 263 265 263 263 273 271 267 272 267 281 284 265 269 264 264 264
259 261 257 258 255 250 256 252 251 246 245 232 229 228 229 227 226 233 248 245 251 258 260 263 264 269 267 263 269 278 271 275 285 274 281 263 263 269
256 257 254 257 250 248 246 248 242 245 243 238 231 230 230 228 225 231 236 247 251 256 260 264 263 263 265 269 270 245 281 284 281 275 275 277 275 270
249 254 252 253 249 244 242 238 240 243 239 240 233 232 231 230 229 235 239 237 244 254 257 260 258 266 268 272 275 271 265 277 282 284 274 274 276 274
252 250 248 249 251 245 245 240 237 236 236 239 233 233 247 233 237 233 246 248 249 252 258 261 260 257 262 263 267 272 262 276 278 280 263 272 279 262
262 254 254 254 248 247 246 244 240 238 237 235 238 230 230 234 243 244 239 243 252 257 250 251 255 256 260 271 269 271 272 272 277 278 278 262 253 258
258 260 260 257 253 252 249 248 246 242 244 239 237 234 234 235 239 246 241 248 245 252 249 255 265 265 267 268 268 269 272 275 271 274 268 271 272 263
282 277 270 259 257 258 253 254 249 248 246 245 244 239 244 240 241 242 245 249 249 256 256 255 254 262 266 266 266 267 266 265 273 273 275 276 275 270
286 283 279 275 272 263 257 258 253 252 250 249 247 248 249 244 250 248 246 252 254 253 252 253 261 264 259 264 264 265 264 269 270 271 272 271 273 273
290 288 287 285 283 279 272 275 275 255 254 251 252 250 249 250 248 249 256 258 258 256 254 258 258 259 262 264 264 265 266 268 269 267 268 269 270 270